Location: Colonia Mina de C?rbuni
(46.1667°N, 22.7167°E)
Time: 01:42:42
(UTC+00:00)

Cosmos 2360 Rocket - Pass Details

Date: 04 February 2023
Orbit: 832 x 846 km, 71.0° (Epoch: 24 March)

Event Time Altitude Azimuth Distance (km) Brightness Sun altitude
Rises 17:48:08 0° 224° (SW) 3,376 6.0 -22.8°
Reaches altitude 10° 17:50:39 10° 230° (SW) 2,448 5.2 -23.2°
Maximum altitude 17:56:03 46° 303° (WNW) 1,116 3.1 -24.1°
Enters shadow 18:01:09 12° 16° (NNE) 2,348 4.4 -25.0°
